This demonstration page uses our WeatherBlox Daily Observations layout. Learn more.

Left ArrowRight Arrow

Hourly Observations for July 6, 2016

Temp ( °F °C ) Dew Point ( °F °C ) Humidity (%) Winds ( mph kmh ) Pressure ( in mb ) Visibility ( mi km ) Precip ( " mm )
12:59 am 00:59 Cloudy 79 26.1 73 22.8 82 82 SW 7 11 29.91 1013 10 16 0.00 0.00
1:59 am 01:59 Mostly Cloudy 78 25.6 73 22.8 85 85 SW 7 11 29.89 1012 10 16 0.00 0.00
2:59 am 02:59 Partly Cloudy 78 25.6 73 22.8 85 85 WSW 5 7 29.90 1013 10 16 0.00 0.00
3:59 am 03:59 Mostly Clear 77 25 73 22.8 88 88 WSW 7 11 29.91 1013 10 16 0.00 0.00
4:59 am 04:59 Mostly Clear 76 24.4 73 22.8 91 91 SW 6 9 29.90 1013 9 14 0.00 0.00
5:59 am 05:59 Mostly Sunny 75 23.9 73 22.8 94 94 SSW 6 9 29.91 1013 7 11 0.00 0.00
6:59 am 06:59 Mostly Sunny 77 25 73 22.8 88 88 SW 6 9 29.92 1013 10 16 0.00 0.00
7:34 am 07:34 Partly Cloudy 78 25.6 73 22.8 85 85 WSW 6 9 29.94 1014 10 16 0.00 0.00
7:52 am 07:52 Mostly Cloudy 78 25.6 73 22.8 85 85 WSW 9 15 29.94 1014 10 16 0.00 0.00
7:59 am 07:59 Partly Cloudy 78 25.6 74 23.3 87 87 WSW 8 13 29.93 1014 10 16 0.00 0.00
8:59 am 08:59 Partly Cloudy 80 26.7 74 23.3 82 82 SW 5 7 29.93 1014 7 11 0.00 0.00
9:50 am 09:50 Mostly Cloudy with Haze 81 27.2 75 23.9 82 82 WNW 10 17 29.94 1014 6 10 0.00 0.00
9:59 am 09:59 Mostly Cloudy with Haze 80 26.7 75 23.9 85 85 VRB 7 11 29.94 1014 6 10 0.00 0.00
10:59 am 10:59 Mostly Cloudy with Haze 82 27.8 76 24.4 82 82 W 8 13 29.94 1014 5 8 0.00 0.00
11:10 am 11:10 Hazy 83 28.3 76 24.4 79 79 WNW 6 9 29.94 1014 6 10 0.00 0.00
11:59 am 11:59 Partly Cloudy 85 29.4 76 24.4 75 75 NW 8 13 29.94 1014 7 11 0.00 0.00
12:59 pm 12:59 Mostly Sunny 87 30.6 76 24.4 70 70 W 7 11 29.93 1014 8 13 0.00 0.00
1:59 pm 13:59 Mostly Sunny 90 32.2 76 24.4 63 63 W 7 11 29.91 1013 9 14 0.00 0.00
2:59 pm 14:59 Partly Cloudy 91 32.8 75 23.9 59 59 WNW 9 15 29.89 1012 10 16 0.00 0.00
3:59 pm 15:59 Partly Cloudy 92 33.3 76 24.4 60 60 VRB 7 11 29.87 1012 10 16 0.00 0.00
4:59 pm 16:59 Partly Cloudy 88 31.1 76 24.4 68 68 ENE 9 15 29.86 1011 9 14 0.00 0.00
5:27 pm 17:27 Mostly Cloudy with Thunderstorms 85 29.4 75 23.9 72 72 ENE 8 13 29.85 1011 10 16 0.00 0.00
5:51 pm 17:51 Mostly Cloudy 84 28.9 75 23.9 74 74 ENE 7 11 29.85 1011 9 14 0.00 0.00
5:59 pm 17:59 Mostly Cloudy 84 28.9 75 23.9 74 74 E 7 11 29.84 1011 9 14 0.00 0.00
6:59 pm 18:59 Mostly Cloudy 85 29.4 76 24.4 75 75 W 8 13 29.87 1012 10 16 0.00 0.00
7:59 pm 19:59 Mostly Cloudy 84 28.9 73 22.8 70 70 WSW 7 11 29.88 1012 10 16 0.00 0.00
8:59 pm 20:59 Mostly Cloudy 83 28.3 73 22.8 72 72 SW 5 7 29.89 1012 10 16 0.00 0.00
9:07 pm 21:07 Mostly Cloudy with Thunderstorms 83 28.3 73 22.8 72 72 WSW 8 13 29.91 1013 10 16 0.00 0.00
9:59 pm 21:59 Mostly Cloudy 83 28.3 74 23.3 74 74 WSW 5 7 29.91 1013 10 16 0.00 0.00
10:59 pm 22:59 Mostly Cloudy 81 27.2 75 23.9 82 82 ESE 6 9 29.91 1013 10 16 0.00 0.00
11:25 pm 23:25 Cloudy 81 27.2 75 23.9 82 82 E 8 13 29.91 1013 9 14 0.00 0.00
11:59 pm 23:59 Mostly Cloudy 80 26.7 74 23.3 82 82 ESE 6 9 29.90 1012 9 14 0.00 0.00

Powered by AerisWeather